Location: Obersdorf
(47.4079°N, 10.2781°E)
Time: 07:35:53
(UTC+01:00)

AO-109 - Pass Details

Date: 06 December 2021
Orbit: 478 x 515 km, 60.7° (Epoch: 22 January)

Event Time Altitude Azimuth Distance (km) Brightness Sun altitude
Exits shadow 05:02:03 30° 112° (ESE) 893 ? -27.7°
Drops below altitude 10° 05:04:03 10° 123° (ESE) 1,650 ? -27.3°
Sets 05:06:12 0° 127° (SE) 2,527 ? -27.0°
